Time,TemperatureF,DewpointF,PressureIn,WindDirection,WindDirectionDegrees,WindSpeedMPH,WindSpeedGustMPH,Humidity,HourlyPrecipIn,Conditions,Clouds,dailyrainin,SoftwareType,DateUTC
2013-05-30 00:03:00,55.0,-99.9,-100.00,North,-999,-999.0,-999.0,-999,0.01,,,0.33,,2013-05-30 04:03:00,
2013-05-30 00:13:00,55.0,-99.9,-100.00,North,-999,-999.0,-999.0,-999,0.01,,,0.33,,2013-05-30 04:13:00,
2013-05-30 00:23:00,55.0,-99.9,-100.00,North,-999,-999.0,-999.0,-999,0.01,,,0.33,,2013-05-30 04:23:00,
2013-05-30 00:33:00,55.0,-99.9,-100.00,North,-999,-999.0,-999.0,-999,0.01,,,0.33,,2013-05-30 04:33:00,
2013-05-30 00:42:00,55.0,-99.9,-100.00,North,-999,-999.0,-999.0,-999,0.01,,,0.33,,2013-05-30 04:42:00,
2013-05-30 01:02:00,56.0,-99.9,-100.00,North,-999,-999.0,-999.0,-999,0.00,,,0.33,,2013-05-30 05:02:00,
2013-05-30 01:12:00,56.0,-99.9,-100.00,North,-999,-999.0,-999.0,-999,0.00,,,0.33,,2013-05-30 05:12:00,
2013-05-30 01:22:00,56.0,-99.9,-100.00,North,-999,-999.0,-999.0,-999,0.00,,,0.33,,2013-05-30 05:22:00,
2013-05-30 01:32:00,56.0,-99.9,-100.00,North,-999,-999.0,-999.0,-999,0.00,,,0.33,,2013-05-30 05:32:00,
2013-05-30 01:43:00,56.0,-99.9,-100.00,North,-999,-999.0,-999.0,-999,0.00,,,0.33,,2013-05-30 05:43:00,
2013-05-30 02:02:00,56.0,-99.9,-100.00,North,-999,-999.0,-999.0,-999,0.00,,,0.33,,2013-05-30 06:02:00,
2013-05-30 02:12:00,56.0,-99.9,-100.00,North,-999,-999.0,-999.0,-999,0.00,,,0.33,,2013-05-30 06:12:00,
2013-05-30 02:22:00,56.0,-99.9,-100.00,North,-999,-999.0,-999.0,-999,0.00,,,0.33,,2013-05-30 06:22:00,
2013-05-30 02:32:00,56.0,-99.9,-100.00,North,-999,-999.0,-999.0,-999,0.00,,,0.33,,2013-05-30 06:32:00,
2013-05-30 02:42:00,56.0,-99.9,-100.00,North,-999,-999.0,-999.0,-999,0.00,,,0.33,,2013-05-30 06:42:00,
2013-05-30 03:02:00,55.0,-99.9,-100.00,North,-999,-999.0,-999.0,-999,0.00,,,0.33,,2013-05-30 07:02:00,
2013-05-30 03:12:00,55.0,-99.9,-100.00,North,-999,-999.0,-999.0,-999,0.00,,,0.33,,2013-05-30 07:12:00,
2013-05-30 03:22:00,55.0,-99.9,-100.00,North,-999,-999.0,-999.0,-999,0.00,,,0.33,,2013-05-30 07:22:00,
2013-05-30 03:32:00,55.0,-99.9,-100.00,North,-999,-999.0,-999.0,-999,0.00,,,0.33,,2013-05-30 07:32:00,
2013-05-30 03:42:00,55.0,-99.9,-100.00,North,-999,-999.0,-999.0,-999,0.00,,,0.33,,2013-05-30 07:42:00,
2013-05-30 04:02:00,54.0,-99.9,-100.00,North,-999,-999.0,-999.0,-999,0.00,,,0.33,,2013-05-30 08:02:00,
2013-05-30 04:11:00,54.0,-99.9,-100.00,North,-999,-999.0,-999.0,-999,0.00,,,0.33,,2013-05-30 08:11:00,
2013-05-30 04:22:00,54.0,-99.9,-100.00,North,-999,-999.0,-999.0,-999,0.00,,,0.33,,2013-05-30 08:22:00,
2013-05-30 04:32:00,54.0,-99.9,-100.00,North,-999,-999.0,-999.0,-999,0.00,,,0.33,,2013-05-30 08:32:00,
2013-05-30 04:42:00,54.0,-99.9,-100.00,North,-999,-999.0,-999.0,-999,0.00,,,0.33,,2013-05-30 08:42:00,
2013-05-30 05:02:00,56.0,-99.9,-100.00,North,-999,-999.0,-999.0,-999,0.00,,,0.33,,2013-05-30 09:02:00,
2013-05-30 05:11:00,56.0,-99.9,-100.00,North,-999,-999.0,-999.0,-999,0.00,,,0.33,,2013-05-30 09:11:00,
2013-05-30 05:22:00,56.0,-99.9,-100.00,North,-999,-999.0,-999.0,-999,0.00,,,0.33,,2013-05-30 09:22:00,
2013-05-30 05:33:00,56.0,-99.9,-100.00,North,-999,-999.0,-999.0,-999,0.00,,,0.33,,2013-05-30 09:33:00,
2013-05-30 05:43:00,56.0,-99.9,-100.00,North,-999,-999.0,-999.0,-999,0.00,,,0.33,,2013-05-30 09:43:00,
2013-05-30 06:03:00,55.0,-99.9,-100.00,North,-999,-999.0,-999.0,-999,0.01,,,0.34,,2013-05-30 10:03:00,
2013-05-30 06:13:00,55.0,-99.9,-100.00,North,-999,-999.0,-999.0,-999,0.01,,,0.34,,2013-05-30 10:13:00,
2013-05-30 06:23:00,55.0,-99.9,-100.00,North,-999,-999.0,-999.0,-999,0.01,,,0.34,,2013-05-30 10:23:00,
2013-05-30 06:33:00,55.0,-99.9,-100.00,North,-999,-999.0,-999.0,-999,0.01,,,0.34,,2013-05-30 10:33:00,
2013-05-30 06:42:00,55.0,-99.9,-100.00,North,-999,-999.0,-999.0,-999,0.01,,,0.34,,2013-05-30 10:42:00,
2013-05-30 07:03:00,59.0,-99.9,-100.00,North,-999,-999.0,-999.0,-999,0.00,,,0.34,,2013-05-30 11:03:00,
2013-05-30 07:12:00,59.0,-99.9,-100.00,North,-999,-999.0,-999.0,-999,0.00,,,0.34,,2013-05-30 11:12:00,
2013-05-30 07:22:00,59.0,-99.9,-100.00,North,-999,-999.0,-999.0,-999,0.00,,,0.34,,2013-05-30 11:22:00,
2013-05-30 07:32:00,59.0,-99.9,-100.00,North,-999,-999.0,-999.0,-999,0.00,,,0.34,,2013-05-30 11:32:00,
2013-05-30 07:42:00,59.0,-99.9,-100.00,North,-999,-999.0,-999.0,-999,0.00,,,0.34,,2013-05-30 11:42:00,
2013-05-30 08:02:00,61.0,-99.9,-100.00,North,-999,-999.0,-999.0,-999,0.00,,,0.33,,2013-05-30 12:02:00,
2013-05-30 08:11:00,61.0,-99.9,-100.00,North,-999,-999.0,-999.0,-999,0.00,,,0.33,,2013-05-30 12:11:00,
2013-05-30 08:22:00,61.0,-99.9,-100.00,North,-999,-999.0,-999.0,-999,0.00,,,0.33,,2013-05-30 12:22:00,
2013-05-30 08:32:00,61.0,-99.9,-100.00,North,-999,-999.0,-999.0,-999,0.00,,,0.33,,2013-05-30 12:32:00,
2013-05-30 08:42:00,61.0,-99.9,-100.00,North,-999,-999.0,-999.0,-999,0.00,,,0.33,,2013-05-30 12:42:00,
2013-05-30 09:02:00,72.0,-99.9,-100.00,North,-999,-999.0,-999.0,-999,0.00,,,0.31,,2013-05-30 13:02:00,
2013-05-30 09:11:00,72.0,-99.9,-100.00,North,-999,-999.0,-999.0,-999,0.00,,,0.31,,2013-05-30 13:11:00,
2013-05-30 09:22:00,72.0,-99.9,-100.00,North,-999,-999.0,-999.0,-999,0.00,,,0.31,,2013-05-30 13:22:00,
2013-05-30 09:32:00,72.0,-99.9,-100.00,North,-999,-999.0,-999.0,-999,0.00,,,0.31,,2013-05-30 13:32:00,
2013-05-30 09:42:00,72.0,-99.9,-100.00,North,-999,-999.0,-999.0,-999,0.00,,,0.31,,2013-05-30 13:42:00,
2013-05-30 10:02:00,76.0,-99.9,-100.00,North,-999,-999.0,-999.0,-999,0.00,,,0.30,,2013-05-30 14:02:00,
2013-05-30 10:12:00,76.0,-99.9,-100.00,North,-999,-999.0,-999.0,-999,0.00,,,0.30,,2013-05-30 14:12:00,
2013-05-30 10:22:00,76.0,-99.9,-100.00,North,-999,-999.0,-999.0,-999,0.00,,,0.30,,2013-05-30 14:22:00,
2013-05-30 10:32:00,76.0,-99.9,-100.00,North,-999,-999.0,-999.0,-999,0.00,,,0.30,,2013-05-30 14:32:00,
2013-05-30 10:42:00,76.0,-99.9,-100.00,North,-999,-999.0,-999.0,-999,0.00,,,0.30,,2013-05-30 14:42:00,
2013-05-30 11:01:00,77.0,-99.9,-100.00,North,-999,-999.0,-999.0,-999,0.00,,,0.26,,2013-05-30 15:01:00,
2013-05-30 11:11:00,77.0,-99.9,-100.00,North,-999,-999.0,-999.0,-999,0.00,,,0.26,,2013-05-30 15:11:00,
2013-05-30 11:22:00,77.0,-99.9,-100.00,North,-999,-999.0,-999.0,-999,0.00,,,0.26,,2013-05-30 15:22:00,
2013-05-30 11:34:00,77.0,-99.9,-100.00,North,-999,-999.0,-999.0,-999,0.00,,,0.26,,2013-05-30 15:34:00,
2013-05-30 11:43:00,77.0,-99.9,-100.00,North,-999,-999.0,-999.0,-999,0.00,,,0.26,,2013-05-30 15:43:00,
2013-05-30 12:03:00,79.0,-99.9,-100.00,North,-999,-999.0,-999.0,-999,0.00,,,0.22,,2013-05-30 16:03:00,
2013-05-30 12:13:00,79.0,-99.9,-100.00,North,-999,-999.0,-999.0,-999,0.00,,,0.22,,2013-05-30 16:13:00,
2013-05-30 12:23:00,79.0,-99.9,-100.00,North,-999,-999.0,-999.0,-999,0.00,,,0.22,,2013-05-30 16:23:00,
2013-05-30 12:33:00,79.0,-99.9,-100.00,North,-999,-999.0,-999.0,-999,0.00,,,0.22,,2013-05-30 16:33:00,
2013-05-30 12:42:00,79.0,-99.9,-100.00,North,-999,-999.0,-999.0,-999,0.00,,,0.22,,2013-05-30 16:42:00,
2013-05-30 13:03:00,78.0,-99.9,-100.00,North,-999,-999.0,-999.0,-999,0.00,,,0.22,,2013-05-30 17:03:00,
2013-05-30 13:12:00,78.0,-99.9,-100.00,North,-999,-999.0,-999.0,-999,0.00,,,0.22,,2013-05-30 17:12:00,
2013-05-30 13:22:00,78.0,-99.9,-100.00,North,-999,-999.0,-999.0,-999,0.00,,,0.22,,2013-05-30 17:22:00,
2013-05-30 13:32:00,78.0,-99.9,-100.00,North,-999,-999.0,-999.0,-999,0.00,,,0.22,,2013-05-30 17:32:00,
2013-05-30 13:42:00,78.0,-99.9,-100.00,North,-999,-999.0,-999.0,-999,0.00,,,0.22,,2013-05-30 17:42:00,
2013-05-30 14:02:00,81.0,-99.9,-100.00,North,-999,-999.0,-999.0,-999,0.00,,,0.22,,2013-05-30 18:02:00,
2013-05-30 14:12:00,81.0,-99.9,-100.00,North,-999,-999.0,-999.0,-999,0.00,,,0.22,,2013-05-30 18:12:00,
2013-05-30 14:22:00,81.0,-99.9,-100.00,North,-999,-999.0,-999.0,-999,0.00,,,0.22,,2013-05-30 18:22:00,
2013-05-30 14:32:00,81.0,-99.9,-100.00,North,-999,-999.0,-999.0,-999,0.00,,,0.22,,2013-05-30 18:32:00,
2013-05-30 14:43:00,81.0,-99.9,-100.00,North,-999,-999.0,-999.0,-999,0.00,,,0.22,,2013-05-30 18:43:00,
2013-05-30 15:02:00,80.0,-99.9,-100.00,North,-999,-999.0,-999.0,-999,0.00,,,0.21,,2013-05-30 19:02:00,
2013-05-30 15:12:00,80.0,-99.9,-100.00,North,-999,-999.0,-999.0,-999,0.00,,,0.21,,2013-05-30 19:12:00,
2013-05-30 15:23:00,80.0,-99.9,-100.00,North,-999,-999.0,-999.0,-999,0.00,,,0.21,,2013-05-30 19:23:00,
2013-05-30 15:32:00,80.0,-99.9,-100.00,North,-999,-999.0,-999.0,-999,0.00,,,0.21,,2013-05-30 19:32:00,
2013-05-30 15:42:00,80.0,-99.9,-100.00,North,-999,-999.0,-999.0,-999,0.00,,,0.21,,2013-05-30 19:42:00,
2013-05-30 16:02:00,82.0,-99.9,-100.00,North,-999,-999.0,-999.0,-999,0.00,,,0.21,,2013-05-30 20:02:00,
2013-05-30 16:11:00,82.0,-99.9,-100.00,North,-999,-999.0,-999.0,-999,0.00,,,0.21,,2013-05-30 20:11:00,
2013-05-30 16:23:00,82.0,-99.9,-100.00,North,-999,-999.0,-999.0,-999,0.00,,,0.21,,2013-05-30 20:23:00,
2013-05-30 16:33:00,82.0,-99.9,-100.00,North,-999,-999.0,-999.0,-999,0.00,,,0.21,,2013-05-30 20:33:00,
2013-05-30 16:42:00,82.0,-99.9,-100.00,North,-999,-999.0,-999.0,-999,0.00,,,0.21,,2013-05-30 20:42:00,
2013-05-30 17:02:00,81.0,-99.9,-100.00,North,-999,-999.0,-999.0,-999,0.00,,,0.21,,2013-05-30 21:02:00,
2013-05-30 17:12:00,81.0,-99.9,-100.00,North,-999,-999.0,-999.0,-999,0.00,,,0.21,,2013-05-30 21:12:00,
2013-05-30 17:22:00,81.0,-99.9,-100.00,North,-999,-999.0,-999.0,-999,0.00,,,0.21,,2013-05-30 21:22:00,
2013-05-30 17:34:00,81.0,-99.9,-100.00,North,-999,-999.0,-999.0,-999,0.00,,,0.21,,2013-05-30 21:34:00,
2013-05-30 17:43:00,81.0,-99.9,-100.00,North,-999,-999.0,-999.0,-999,0.00,,,0.21,,2013-05-30 21:43:00,
2013-05-30 18:03:00,82.0,-99.9,-100.00,North,-999,-999.0,-999.0,-999,0.00,,,0.21,,2013-05-30 22:03:00,
2013-05-30 18:12:00,82.0,-99.9,-100.00,North,-999,-999.0,-999.0,-999,0.00,,,0.21,,2013-05-30 22:12:00,
2013-05-30 18:23:00,82.0,-99.9,-100.00,North,-999,-999.0,-999.0,-999,0.00,,,0.21,,2013-05-30 22:23:00,
2013-05-30 18:33:00,82.0,-99.9,-100.00,North,-999,-999.0,-999.0,-999,0.00,,,0.21,,2013-05-30 22:33:00,
2013-05-30 18:42:00,82.0,-99.9,-100.00,North,-999,-999.0,-999.0,-999,0.00,,,0.21,,2013-05-30 22:42:00,
2013-05-30 19:03:00,79.0,-99.9,-100.00,North,-999,-999.0,-999.0,-999,0.00,,,0.21,,2013-05-30 23:03:00,
2013-05-30 19:12:00,79.0,-99.9,-100.00,North,-999,-999.0,-999.0,-999,0.00,,,0.21,,2013-05-30 23:12:00,
2013-05-30 19:22:00,79.0,-99.9,-100.00,North,-999,-999.0,-999.0,-999,0.00,,,0.21,,2013-05-30 23:22:00,
2013-05-30 19:32:00,79.0,-99.9,-100.00,North,-999,-999.0,-999.0,-999,0.00,,,0.21,,2013-05-30 23:32:00,
2013-05-30 19:42:00,79.0,-99.9,-100.00,North,-999,-999.0,-999.0,-999,0.00,,,0.21,,2013-05-30 23:42:00,
2013-05-30 20:02:00,72.0,-99.9,-100.00,North,-999,-999.0,-999.0,-999,0.00,,,0.21,,2013-05-31 00:02:00,
2013-05-30 20:12:00,72.0,-99.9,-100.00,North,-999,-999.0,-999.0,-999,0.00,,,0.21,,2013-05-31 00:12:00,
2013-05-30 20:22:00,72.0,-99.9,-100.00,North,-999,-999.0,-999.0,-999,0.00,,,0.21,,2013-05-31 00:22:00,
2013-05-30 20:32:00,72.0,-99.9,-100.00,North,-999,-999.0,-999.0,-999,0.00,,,0.21,,2013-05-31 00:32:00,
2013-05-30 20:42:00,72.0,-99.9,-100.00,North,-999,-999.0,-999.0,-999,0.00,,,0.21,,2013-05-31 00:42:00,
2013-05-30 21:01:00,69.0,-99.9,-100.00,North,-999,-999.0,-999.0,-999,0.00,,,0.21,,2013-05-31 01:01:00,
2013-05-30 21:12:00,69.0,-99.9,-100.00,North,-999,-999.0,-999.0,-999,0.00,,,0.21,,2013-05-31 01:12:00,
2013-05-30 21:22:00,69.0,-99.9,-100.00,North,-999,-999.0,-999.0,-999,0.00,,,0.21,,2013-05-31 01:22:00,
2013-05-30 21:32:00,69.0,-99.9,-100.00,North,-999,-999.0,-999.0,-999,0.00,,,0.21,,2013-05-31 01:32:00,
2013-05-30 21:43:00,69.0,-99.9,-100.00,North,-999,-999.0,-999.0,-999,0.00,,,0.21,,2013-05-31 01:43:00,
2013-05-30 22:12:00,66.0,-99.9,-100.00,North,-999,-999.0,-999.0,-999,0.00,,,0.21,,2013-05-31 02:12:00,
2013-05-30 22:22:00,66.0,-99.9,-100.00,North,-999,-999.0,-999.0,-999,0.00,,,0.21,,2013-05-31 02:22:00,
2013-05-30 22:32:00,66.0,-99.9,-100.00,North,-999,-999.0,-999.0,-999,0.00,,,0.21,,2013-05-31 02:32:00,
2013-05-30 22:42:00,66.0,-99.9,-100.00,North,-999,-999.0,-999.0,-999,0.00,,,0.21,,2013-05-31 02:42:00,
2013-05-30 23:02:00,65.0,-99.9,-100.00,North,-999,-999.0,-999.0,-999,0.00,,,0.02,,2013-05-31 03:02:00,
2013-05-30 23:11:00,65.0,-99.9,-100.00,North,-999,-999.0,-999.0,-999,0.00,,,0.02,,2013-05-31 03:11:00,
2013-05-30 23:22:00,65.0,-99.9,-100.00,North,-999,-999.0,-999.0,-999,0.00,,,0.02,,2013-05-31 03:22:00,
2013-05-30 23:33:00,65.0,-99.9,-100.00,North,-999,-999.0,-999.0,-999,0.00,,,0.02,,2013-05-31 03:33:00,
2013-05-30 23:43:00,65.0,-99.9,-100.00,North,-999,-999.0,-999.0,-999,0.00,,,0.02,,2013-05-31 03:43:00,